Weather History for Saratoga Shively Field Airpor, WY

Change the Weather History Date:

Saturday, March 1, 2014

  Actual Average Record
Temperature  
Mean Temperature 32 °F -  
Max Temperature 42 °F 43 °F 42 °F (2014)
Min Temperature 21 °F 19 °F 21 °F (2014)
Degree Days  
Heating Degree Days 34    
Moisture  
Dew Point 27 °F    
Average Humidity 85    
Maximum Humidity 93    
Minimum Humidity 65    
Precipitation  
Precipitation 0.00 in - - ()
Sea Level Pressure  
Sea Level Pressure 29.68 in    
Wind  
Wind Speed 13 mph (West)    
Max Wind Speed 33 mph    
Max Gust Speed 47 mph    
Visibility 9 miles    
Events Rain , Snow    
Averages and records for this station are not official NWS values.
T = Trace of Precipitation, MM = Missing Value Source: NWS Daily Summary

Daily Weather History Graph

Daily Weather History Graph

Search for Another Location

Airport:

Trip Planner

Search our weather history database for the weather conditions in past years. The results will help you decide how hot, cold, wet, or windy it might be!

Date:

Astronomy

Mar. 01, 2014 Rise Set
Actual Time 6:41 AM MST 5:58 PM MST
Civil Twilight 6:14 AM MST 6:25 PM MST
Nautical Twilight 5:41 AM MST 6:57 PM MST
Astronomical Twilight 5:09 AM MST 7:30 PM MST
Moon 6:36 AM MST (3/1) 6:49 PM MST (3/1)
Length of Visible Light 12h 11m
Length of Day
11h 16m
New Moon, 0% of the Moon is Illuminated
Mar 1
New Moon
Mar 8
First Quarter
Mar 16
Full
Mar 23
Last Quarter
Mar 30
New

Hourly Weather History & Observations

Time (MST) Temp. Windchill Dew Point Humidity Pressure Visibility Wind Dir Wind Speed Gust Speed Precip Events Conditions
12:15 AM 37.4 °F 26.6 °F 30.2 °F 75% 29.62 in 10.0 mi SSW 21.9 mph 27.6 mph N/A   Scattered Clouds
12:36 AM 39.2 °F 29.0 °F 30.2 °F 70% 29.62 in 10.0 mi SSW 21.9 mph - N/A   Overcast
12:55 AM 37.4 °F 28.2 °F 30.2 °F 75% 29.61 in 10.0 mi SSW 16.1 mph - N/A Rain Light Rain
1:15 AM 37.4 °F 27.8 °F 32.0 °F 81% 29.62 in 10.0 mi South 17.3 mph 25.3 mph N/A   Overcast
1:35 AM 35.6 °F 26.6 °F 32.0 °F 87% 29.62 in 7.0 mi South 13.8 mph - N/A Rain Light Rain
1:55 AM 33.8 °F 25.3 °F 32.0 °F 93% 29.63 in 4.0 mi SSW 11.5 mph - N/A Snow Light Snow
2:15 AM 35.6 °F 26.2 °F 32.0 °F 87% 29.62 in 3.0 mi WSW 15.0 mph 21.9 mph N/A Rain Light Rain
2:35 AM 35.6 °F 28.6 °F 32.0 °F 87% 29.63 in 10.0 mi SSW 9.2 mph - N/A Rain Light Rain
2:55 AM 33.8 °F 25.8 °F 32.0 °F 93% 29.62 in 10.0 mi South 10.4 mph - N/A Rain Light Rain
3:15 AM 37.4 °F 28.9 °F 32.0 °F 81% 29.60 in 10.0 mi SW 13.8 mph 19.6 mph N/A   Mostly Cloudy
3:35 AM 35.6 °F 25.9 °F 32.0 °F 87% 29.60 in 10.0 mi SW 16.1 mph 19.6 mph N/A   Scattered Clouds
3:55 AM 35.6 °F 26.2 °F 32.0 °F 87% 29.61 in 7.0 mi SW 15.0 mph 20.7 mph N/A Rain Rain
4:16 AM 33.8 °F 25.8 °F 32.0 °F 93% 29.62 in 10.0 mi WSW 10.4 mph - N/A Rain Light Rain
4:35 AM 33.8 °F 27.0 °F 32.0 °F 93% 29.60 in 7.0 mi WSW 8.1 mph - N/A   Light Drizzle
4:55 AM 33.8 °F 28.6 °F 32.0 °F 93% 29.60 in 10.0 mi West 5.8 mph - N/A   Overcast
5:15 AM 33.8 °F 27.0 °F 32.0 °F 93% 29.60 in 10.0 mi West 8.1 mph - N/A   Overcast
5:35 AM 35.6 °F 29.2 °F 32.0 °F 87% 29.58 in 10.0 mi West 8.1 mph 16.1 mph N/A   Light Drizzle
5:55 AM 33.8 °F 26.4 °F 32.0 °F 93% 29.58 in 10.0 mi SW 9.2 mph - N/A   Overcast
6:15 AM 35.6 °F 26.6 °F 32.0 °F 87% 29.59 in 10.0 mi SW 13.8 mph - N/A   Overcast
6:35 AM 35.6 °F 28.6 °F 32.0 °F 87% 29.60 in 10.0 mi SW 9.2 mph - N/A Rain Rain
6:55 AM 35.6 °F 28.6 °F 33.8 °F 93% 29.60 in 10.0 mi SW 9.2 mph 21.9 mph N/A   Light Drizzle
7:15 AM 33.8 °F 29.6 °F 32.0 °F 93% 29.60 in 10.0 mi SSW 4.6 mph - N/A   Overcast
7:36 AM 35.6 °F 29.9 °F 33.8 °F 93% 29.61 in 10.0 mi West 6.9 mph - N/A   Overcast
7:55 AM 37.4 °F 27.8 °F 32.0 °F 81% 29.59 in 10.0 mi SW 17.3 mph 24.2 mph N/A   Scattered Clouds
8:16 AM 39.2 °F 30.2 °F 33.8 °F 81% 29.59 in 10.0 mi SW 17.3 mph 26.5 mph N/A   Clear
8:35 AM 39.2 °F 29.6 °F 32.0 °F 75% 29.62 in 10.0 mi SW 19.6 mph 29.9 mph N/A   Scattered Clouds
8:55 AM 39.2 °F 27.8 °F 32.0 °F 75% 29.60 in 10.0 mi SW 27.6 mph 39.1 mph N/A   Mostly Cloudy
9:15 AM 41.0 °F 29.3 °F 30.2 °F 65% 29.59 in 10.0 mi SW 33.4 mph 42.6 mph N/A   Scattered Clouds
9:35 AM 41.0 °F 29.8 °F 32.0 °F 70% 29.60 in 10.0 mi SW 29.9 mph 47.2 mph N/A   Scattered Clouds
9:55 AM 42.8 °F 31.9 °F 32.0 °F 66% 29.61 in 10.0 mi SW 32.2 mph 42.6 mph N/A   Scattered Clouds
10:15 AM 41.0 °F 30.5 °F 32.0 °F 70% 29.63 in 7.0 mi West 26.5 mph 43.7 mph N/A   Mostly Cloudy
10:35 AM 33.8 °F 20.5 °F 32.0 °F 93% 29.62 in 1.2 mi WSW 27.6 mph 42.6 mph N/A Snow Light Snow
10:55 AM 37.4 °F 27.5 °F 33.8 °F 87% 29.63 in 10.0 mi West 18.4 mph 25.3 mph N/A   Mostly Cloudy
11:15 AM 37.4 °F 30.3 °F 32.0 °F 81% 29.64 in 10.0 mi NW 10.4 mph 28.8 mph N/A   Scattered Clouds
11:36 AM 33.8 °F 25.8 °F 30.2 °F 87% 29.66 in 10.0 mi NW 10.4 mph 23.0 mph N/A   Scattered Clouds
11:55 AM 28.4 °F 19.1 °F 24.8 °F 86% 29.66 in 10.0 mi North 10.4 mph 19.6 mph N/A   Mostly Cloudy
12:15 PM 26.6 °F 15.2 °F 23.0 °F 86% 29.65 in 10.0 mi North 13.8 mph 17.3 mph N/A   Mostly Cloudy
12:36 PM 26.6 °F 15.2 °F 23.0 °F 86% 29.65 in 7.0 mi NNE 13.8 mph 20.7 mph N/A Snow Light Snow
12:55 PM 32.0 °F 23.0 °F 28.4 °F 87% 29.64 in 10.0 mi ENE 11.5 mph 16.1 mph N/A   Mostly Cloudy
1:15 PM 42.8 °F 32.9 °F 32.0 °F 66% 29.64 in 10.0 mi WSW 26.5 mph 34.5 mph N/A   Mostly Cloudy
1:35 PM 32.0 °F 25.6 °F 26.6 °F 80% 29.65 in 10.0 mi North 6.9 mph 16.1 mph N/A   Mostly Cloudy
1:55 PM 30.2 °F 23.4 °F 23.0 °F 75% 29.65 in 10.0 mi North 6.9 mph 16.1 mph N/A   Mostly Cloudy
2:15 PM 30.2 °F 20.2 °F 23.0 °F 75% 29.66 in 10.0 mi NNE 12.7 mph 16.1 mph N/A   Mostly Cloudy
2:35 PM 28.4 °F 17.5 °F 23.0 °F 80% 29.66 in 10.0 mi North 13.8 mph 17.3 mph N/A   Overcast
2:55 PM 28.4 °F 19.1 °F 21.2 °F 74% 29.67 in 10.0 mi North 10.4 mph - N/A   Overcast
3:15 PM 28.4 °F 18.5 °F 21.2 °F 74% 29.68 in 10.0 mi North 11.5 mph - N/A   Mostly Cloudy
3:35 PM 26.6 °F 16.2 °F 19.4 °F 74% 29.69 in 10.0 mi North 11.5 mph - N/A   Mostly Cloudy
3:55 PM 23.0 °F 13.9 °F 17.6 °F 80% 29.70 in 10.0 mi North 8.1 mph - N/A   Scattered Clouds
4:15 PM 21.2 °F 10.9 °F 17.6 °F 86% 29.71 in 10.0 mi NNW 9.2 mph - N/A   Mostly Cloudy
4:35 PM 21.2 °F 11.7 °F 17.6 °F 86% 29.71 in 10.0 mi NNW 8.1 mph - N/A   Mostly Cloudy
4:55 PM 21.2 °F 12.6 °F 17.6 °F 86% 29.72 in 10.0 mi NNW 6.9 mph - N/A   Scattered Clouds
5:15 PM 21.2 °F 13.6 °F 17.6 °F 86% 29.73 in 10.0 mi North 5.8 mph - N/A   Scattered Clouds
5:35 PM 21.2 °F - 17.6 °F 86% 29.74 in 10.0 mi Calm Calm - N/A   Mostly Cloudy
5:55 PM 21.2 °F 10.9 °F 19.4 °F 93% 29.75 in 2.5 mi NW 9.2 mph - N/A Snow Light Snow
6:15 PM 21.2 °F - 17.6 °F 86% 29.76 in 7.0 mi Calm Calm - N/A Snow Light Snow
6:35 PM 21.2 °F - 17.6 °F 86% 29.76 in 5.0 mi Calm Calm - N/A Snow Light Snow
6:55 PM 21.2 °F - 17.6 °F 86% 29.78 in 7.0 mi Calm Calm - N/A Snow Light Snow
7:15 PM 21.2 °F 10.9 °F 19.4 °F 93% 29.78 in 1.5 mi South 9.2 mph - N/A Snow Light Snow
7:35 PM 21.2 °F - 19.4 °F 93% 29.79 in 10.0 mi Calm Calm - N/A   Overcast
7:55 PM 21.2 °F - 19.4 °F 93% 29.79 in 10.0 mi Calm Calm - N/A   Overcast
8:15 PM 23.0 °F 17.0 °F 21.2 °F 93% 29.80 in 10.0 mi North 4.6 mph - N/A   Overcast
8:35 PM 21.2 °F 13.6 °F 19.4 °F 93% 29.81 in 7.0 mi NNW 5.8 mph - N/A Snow Light Snow
8:55 PM 21.2 °F - 19.4 °F 93% 29.81 in 10.0 mi Calm Calm - N/A   Overcast
9:15 PM 21.2 °F - 19.4 °F 93% 29.81 in 5.0 mi Calm Calm - N/A Snow Light Snow
9:35 PM 26.6 °F - 23.0 °F 86% 29.82 in 10.0 mi Calm Calm - N/A   Overcast
9:55 PM 32.0 °F 25.6 °F 30.2 °F 93% 29.82 in 7.0 mi SW 6.9 mph - N/A   Overcast
10:15 PM 32.0 °F 28.7 °F 30.2 °F 93% 29.82 in 10.0 mi SSW 3.5 mph - N/A   Overcast
10:35 PM 32.0 °F 27.5 °F 30.2 °F 93% 29.83 in 10.0 mi WSW 4.6 mph - N/A   Overcast
10:55 PM 28.4 °F 24.6 °F 26.6 °F 93% 29.83 in 10.0 mi South 3.5 mph - N/A   Overcast
11:15 PM 28.4 °F - 24.8 °F 86% 29.82 in 10.0 mi Calm Calm - N/A   Overcast
11:35 PM 28.4 °F - 26.6 °F 93% 29.82 in 10.0 mi Calm Calm - N/A   Overcast
11:55 PM 28.4 °F - 26.6 °F 93% 29.82 in 10.0 mi Calm Calm - N/A   Overcast